Flight Track Log - Related Links

Times and Time Zones

All times are in EDT time to prevent confusion due to time zone crossing. See the KAP5 flight status page for this flight to view local times or setup timezone preferences in your user account.

Time Position Orientation Groundspeed Altitude Reporting Facility
EDT Latitude Longitude Course Direction KTS MPH feet Rate Location/Type
Mon 07:15:44 PM 42.7842 -73.7981 13° North 127 146 1,700  Level Boston Center
Mon 07:16:45 PM 42.7847 -73.7528 89° East 130 150 2,800 1,190 Climbing Boston Center
Mon 07:17:45 PM 42.7831 -73.7047 93° East 130 150 4,100 1,289 Climbing Boston Center
Mon 07:18:46 PM 42.7856 -73.6594 86° East 124 143 5,400 1,289 Climbing Boston Center
Mon 07:19:46 PM 42.7861 -73.6114 89° East 122 140 6,700 992 Climbing Boston Center
Mon 07:20:47 PM 42.7847 -73.5631 92° East 130 150 7,400 645 Climbing Boston Center
Mon 07:21:47 PM 42.7808 -73.5150 96° East 131 151 8,000 645 Climbing Boston Center
Mon 07:22:48 PM 42.7794 -73.4583 92° East 137 158 8,700 516 Climbing Boston Center
Mon 07:23:55 PM 42.7778 -73.3961 92° East 147 169 9,100 198 Climbing Boston Center
Mon 07:24:49 PM 42.7719 -73.3367 98° East 179 206 9,100  Level Boston Center
Mon 07:25:32 PM 42.7639 -73.2914 104° East 186 214 9,100  Level Boston Center
Mon 07:26:32 PM 42.7519 -73.2317 105° East 179 206 9,100  Level Boston Center
Mon 07:27:32 PM 42.7400 -73.1581 102° East 185 213 9,100  Level Boston Center
Mon 07:28:32 PM 42.7297 -73.0986 103° East 180 207 9,100  Level Boston Center
Mon 07:29:32 PM 42.7156 -73.0278 105° East 180 207 9,100  Level Boston Center
Mon 07:30:32 PM 42.7078 -72.9628 99° East 180 207 9,100  Level Boston Center
Mon 07:31:32 PM 42.7017 -72.8950 97° East 180 207 9,100  Level Boston Center
Mon 07:32:32 PM 42.6853 -72.8300 109° East 180 207 9,100  Level Boston Center
Mon 07:33:32 PM 42.6731 -72.7619 104° East 180 207 9,100  Level Boston Center
Mon 07:34:32 PM 42.6586 -72.6969 107° East 180 207 9,100  Level Boston Center
Mon 07:35:32 PM 42.6483 -72.6264 101° East 180 207 9,100  Level Boston Center
Mon 07:36:32 PM 42.6339 -72.5614 107° East 180 207 9,100  Level Boston Center
Mon 07:37:32 PM 42.6233 -72.4908 101° East 180 207 9,100  Level Boston Center
Mon 07:38:32 PM 42.6108 -72.4258 105° East 180 207 9,100 -50 Level Boston Center
Mon 07:39:32 PM 42.6256 -72.3583 73° East 180 207 9,000  Descending Boston Center
Mon 07:40:32 PM 42.6442 -72.2906 70° East 180 207 9,100 50 Climbing Boston Center
Mon 07:41:32 PM 42.6336 -72.2256 102° East 186 214 9,100  Level Boston Center
Mon 07:42:32 PM 42.6147 -72.1581 111° Southeast 182 209 9,100 -50 Level Boston Center
Mon 07:43:32 PM 42.6000 -72.0961 108° East 187 215 9,000  Descending Boston Center
Mon 07:44:32 PM 42.5831 -72.0256 108° East 187 215 9,100  Climbing Boston Center
Mon 07:45:32 PM 42.5808 -71.9636 93° East 180 207 9,000  Descending Boston Center
Mon 07:46:32 PM 42.5700 -71.8875 101° East 180 207 9,100 50 Climbing Boston Center
Mon 07:47:32 PM 42.5675 -71.8228 93° East 180 207 9,100  Level Boston Center
Mon 07:48:32 PM 42.5631 -71.7439 94° East 180 207 9,100 -250 Level Boston Center
Mon 07:49:32 PM 42.5606 -71.6789 93° East 180 207 8,600 -550 Descending Boston Center
Mon 07:50:32 PM 42.5578 -71.5917 92° East 199 229 8,000 -600 Descending Boston Center
Mon 07:51:32 PM 42.5550 -71.5214 93° East 199 229 7,400 -650 Descending Boston Center
Mon 07:52:32 PM 42.5522 -71.4339 92° East 205 236 6,700 -650 Descending Boston Center
Mon 07:53:32 PM 42.5475 -71.3608 95° East 205 236 6,100 -750 Descending Boston Center
Mon 07:54:32 PM 42.5444 -71.2761 93° East 205 236 5,200 -1,000 Descending Boston Center
Mon 07:55:32 PM 42.5417 -71.1944 93° East 211 243 4,100 -909 Descending Boston Center
Mon 07:56:44 PM 42.5386 -71.1158 93° East 216 249 3,200 -478 Descending Boston Center
Mon 07:57:50 PM 42.5333 -71.0167 94° East 184 212 3,000 -480 Descending KA90
Mon 07:58:49 PM 42.5000 -70.9667 132° Southeast 192 221 2,200 -807 Descending KA90
Mon 07:59:49 PM 42.4500 -70.9667 180° South 178 205 1,400 -800 Descending KA90
Mon 08:00:49 PM 42.4000 -70.9833 194° South 169 194 600 -800 Descending KA90
Mon 08:02:00 PM 42.3630 -71.0064 205° Southwest  Level Estimated
Mon 08:09:00 PM 42.3630 -71.0064 48° Northeast  Level Estimated

Login

Don't have an account? Register now (free) for customized features, flight alerts, and more!